{"data":{"norad_id":65302,"intl_designator":"2025-185F","name":"DOJO","alt_names":[],"object_type":"PAYLOAD","status":"ACTIVE","operator":null,"country":"RWA","launch_date":"2025-08-23","launch_site_code":"RLLB","launch_vehicle":null,"mission":null,"orbit_class":"UNKNOWN","rcs_meters":null,"size_class":null,"mass_kg":null,"dimensions":null,"purposes":[],"wikipedia_slug":null,"has_3d_model":false,"image_url":null,"decayed_at":null,"tle_current":{"epoch":"2026-05-25T04:59:50.436096Z","epoch_age_seconds":50957,"freshness":"FRESH","line1":"1 65302U 25185F   26145.20822264  .00009113  00000+0  12410-2 0  9994","line2":"2 65302  97.9642 228.8127 0016931 150.7365 209.4798 14.78844433 40449","mean_motion":14.78844433,"eccentricity":0.0016931,"inclination_deg":97.9642,"raan_deg":228.8127,"arg_perigee_deg":150.7365,"mean_anomaly_deg":209.4798,"bstar":0.001241,"rev_number":4044,"period_min":97.373325271192,"perigee_km":621.10356100199,"apogee_km":644.84458531793,"semimajor_km":7011.11107316,"source":"CELESTRAK","updated_at":"2026-05-25T13:38:05.298156Z"}}}